Flag for Brazil Weather past 2 weeks in Belém, Pará, Brazil

Now
86 °F

Scattered clouds.


Feels Like: 97 °F
Forecast: 75 / 88 °F
Wind: 7 mph from North

Location: Belem Aeroporto

Current Time: Jul 30, 2015 at 4:20:18 PM

Latest Report: Jul 30, 2015 at 4:00 PM


Visibility: N/A

Pressure: 29.86 "Hg

Humidity: 75%

Dew point: 77 °F

Location of BelémLocation

Historic Weather in Belém — Graph

°F

Belém temperature yesterday

Maximum temperature yesterday: 88 °F (at 3:00 PM)
Minimum temperature yesterday: 73 °F (at 4:00 AM)
Average temperature yesterday: 78 °F

Past Weeks' High & Low Weather Summary

 TemperatureHumidityPressure
High90 °F (Jul 15, 3:00 PM)100% (Jul 24, 4:00 AM)30.01 "Hg (Jul 24, 4:00 AM)
Low73 °F (Jul 22, 6:00 AM)49% (Jul 16, 2:00 PM)29.83 "Hg (Jul 15, 3:00 PM)
Average80 °F82%29.92 "Hg
* Reported Jul 15 3:00 PM — Jul 30 3:00 PM, Belém, Weather by CustomWeather, © 2015

Note: Actual official high and low records may vary slightly from our data, if they occured in-between our weather recording intervals... More about our weather records

Advertising

Belém weather history for previous 24 hours

 ConditionsComfort  
Time TempWeatherWind HumidityBarometerVisibility
3:00 PM
Thu, Jul 30
90 °FPartly sunny.9 mph55%29.86 "HgN/A
2:00 PM88 °FPartly sunny.9 mph62%29.92 "HgN/A
1:00 PM88 °FPartly sunny.10 mph62%29.92 "HgN/A
12:00 PM86 °FPartly sunny.9 mph66%29.95 "HgN/A
11:00 AM84 °FPartly sunny.10 mph70%29.98 "HgN/A
10:00 AM82 °FPartly sunny.13 mph79%29.95 "HgN/A
9:00 AM81 °FScattered clouds.13 mph84%29.95 "HgN/A
8:00 AM77 °FClear.7 mph89%29.95 "Hg5 mi
7:00 AM73 °FSunny.5 mph94%29.92 "Hg10 mi
6:00 AM73 °FClear.6 mph94%29.89 "Hg10 mi
5:00 AM73 °FClear.3 mph94%29.89 "Hg10 mi
4:00 AM75 °FClear.6 mph94%29.89 "Hg10 mi
3:00 AM75 °FClear.7 mph94%29.89 "Hg10 mi
2:00 AM75 °FClear.6 mph94%29.89 "Hg10 mi
1:00 AM75 °FClear.5 mph94%29.92 "Hg10 mi
12:00 AM77 °FClear.5 mph89%29.95 "Hg10 mi
11:00 PM
Wed, Jul 29
77 °FClear.3 mph89%29.95 "Hg10 mi
10:00 PM75 °FClear.2 mph94%29.95 "Hg10 mi
9:00 PM75 °FPassing clouds.2 mph94%29.92 "HgN/A
8:00 PM75 °FPassing clouds.5 mph94%29.92 "HgN/A
7:00 PM75 °FScattered showers. Partly cloudy.8 mph89%29.92 "Hg6 mi
6:00 PM77 °FScattered showers. Partly sunny.5 mph89%N/A5 mi
5:00 PM75 °FLight rain. Broken clouds.12 mph89%N/A3 mi
4:00 PM79 °FThunderstorms. Partly sunny.15 mph84%N/A5 mi
Weather by CustomWeather, © 2015

See weather overviewHow to use our weather pages